Regional Weather Roundup
Issued by NWS Grand Forks, ND

Home | Current Version | Previous Version | Text Only | Print | Product List | Glossary Off
Versions: 1 2 3 4 5 6 7 8 9 10 11 12 13 14 15 16 17 18 19 20 21 22 23 24 25 26 27 28 29 30 31 32 33 34 35 36 37 38 39 40 41 42 43 44 45 46 47 48 49 50

000
ASUS43 KFGF 311310
RWRFGF
PRAIRIE TO PINES  WEATHER ROUNDUP
NATIONAL WEATHER SERVICE EASTERN NORTH DAKOTA/GRAND FORKS ND
800 AM CDT TUE MAY 31 2016

 **SATELLITE DATA USED TO AUGMENT SKY COVER AT AUTOMATED STATIONS**
 *****  WEATHER ACROSS EASTERN NORTH DAKOTA  *****

CITY           SKY/WX    TMP DP  RH WIND       PRES   REMARKS
GRAND FORKS    CLOUDY    61  57  87 S13       29.68F
GRAND FRKS AFB CLOUDY    60  59  94 S13       29.68S
GRAND FRKS NWS   N/A     59 N/A N/A S9          N/A
DEVILS LAKE    CLOUDY    58  55  90 SW15      29.66R
FARGO          PTSUNNY   62  57  83 S15       29.72S
WAHPETON ARPT  CLOUDY    61  55  82 SW12      29.77R
$$

 ***** WEATHER ACROSS CENTRAL AND WESTERN NORTH DAKOTA  *****

CITY           SKY/WX    TMP DP  RH WIND       PRES   REMARKS
BISMARCK       SUNNY     51  45  79 W18G25    29.77F
MINOT          LGT RAIN  53  49  86 W22G31    29.66F
JAMESTOWN      CLOUDY    56  51  84 W17       29.72R
MINOT AFB      RAIN      51  48  90 W23G33    29.65S FOG
GARRISON         N/A     50  47  89 W16       29.71S
WILLISTON      LGT RAIN  52  49  89 W14       29.72F
DICKINSON      CLOUDY    46  44  93 W17       29.77F
HETTINGER      CLOUDY    49  44  83 W21G28    29.86F
$$

 *****  OTHER AIRPORT OBSERVATIONS IN OUR AREA  *****

CITY           SKY/WX    TMP DP  RH WIND       PRES   REMARKS
WALHALLA       FAIR      59  55  88 SE9       29.66F
GRAFTON AIRPOR CLOUDY    61  61 100 SE14G21   29.69S
VALLEY CITY AR PTSUNNY   57  57 100 SW12G17   29.75R
CANDO          NOT AVBL
CAVALIER APRT  CLOUDY    61  59  94 SE12G18   29.67S
GWINNER        CLOUDY    59  57  94 SW16      29.77S
ROLLA          CLOUDY    54  54 100 E20G25    29.64S FOG
 ***** THE ABOVE OBSERVATIONS ARE NON NWS ARE NOT QUALITY
       CONTROLLED AND MAY MIS-REPORT RAIN FOR SNOW...
$$

  *****  WEATHER ACROSS NORTHERN MINNESOTA  *****

CITY           SKY/WX    TMP DP  RH WIND       PRES   REMARKS
FLAG ISLAND    LGT RAIN  52  50  93 E9G17     29.85F
WARROAD        RAIN      54  48  82 E23G31    29.82S
ROSEAU         CLOUDY    54  48  82 E12G18    29.79S
HALLOCK        CLOUDY    59  55  88 SE20      29.70S FOG
THF RVR FALLS  CLOUDY    57  54  88 SE16G24   29.74F
BAUDETTE       LGT RAIN  51  47  86 SE20G29   29.86R FOG
WASKISH        HVY RAIN  52  48  87 E16G24    29.85S
CROOKSTON      HVY RAIN  59  57  94 S14       29.72S
STEPHEN NDAWN    N/A     59  57  94 SE12        N/A
GREENBUSH NDAW   N/A     55  54  94 E15         N/A
$$
  *****  WEATHER ACROSS CENTRAL AND WEST MINNESOTA  *****

CITY           SKY/WX    TMP DP  RH WIND       PRES   REMARKS
FOSSTON        CLOUDY    57  55  94 SE10G20   29.75S
BEMIDJI        CLOUDY    52  51  96 E15       29.80F
PARK RAPIDS    CLOUDY    57  54  89 SE14      29.80F
ELBOW LAKE     CLOUDY    60  58  92 SW10      29.79R
WADENA         CLOUDY    61  59  94 SE9       29.80S
DETROIT LAKES  RAIN      61  59  94 S10       29.77S
MOORHEAD       PTSUNNY   61  57  88 SW10      29.74R
FERGUS FALLS   CLOUDY    61  61 100 W8G16     29.74S
MORRIS MN      CLOUDY    61  57  88 W12       29.80R
STAPLES        LGT RAIN  61  61 100 SE8       29.81F
$$
  *****  WEATHER ELSEWHERE ACROSS MINNESOTA  *****

CITY           SKY/WX    TMP DP  RH WIND       PRES   REMARKS
DULUTH         CLOUDY    47  41  80 E18G25    29.97R
INTRNTL FALLS  LGT RAIN  49  45  86 E10       29.93F FOG
ELY            CLOUDY    48  37  66 E18G25    29.97F
CLOQUET        CLOUDY    46  43  87 E15G21    29.95S
WHEATON        CLOUDY    63  57  82 SW13      29.81R
BRAINERD       RAIN      54  53  97 VRB7      29.85R FOG
HIBBING        LGT RAIN  47  43  86 SE9G20    29.93S
ALEXANDRIA     LGT RAIN  61  58  90 S9        29.81S
SAINT CLOUD    LGT RAIN  63  61  93 S6        29.84R
MINNEAPOLIS    CLOUDY    66  57  72 S12       29.87R
$$

  *****  WEATHER ACROSS SOUTH DAKOTA  *****

CITY           SKY/WX    TMP DP  RH WIND       PRES   REMARKS
SIOUX FALLS    CLOUDY    59  55  87 NW10      29.92R
BROOKINGS      CLOUDY    57  53  86 NW15G23   29.88R
WATERTOWN      CLOUDY    58  53  84 W12       29.86R
HURON          SUNNY     57  48  72 W18       29.90R
SISSETON         N/A     60  55  83 W7        29.78S
ABERDEEN       SUNNY     56  49  77 W16       29.84R
MITCHELL       SUNNY     58  51  78 NW13      29.94R
PIERRE         SUNNY     53  41  63 W15       29.93F
MOBRIDGE       SUNNY     54  43  66 W10       29.85S
RAPID CITY     SUNNY     50  37  61 S7        29.98F
$$

  *****  SOME WEATHER IN NEARBY STATES *****

CITY           SKY/WX    TMP DP  RH WIND       PRES   REMARKS
GLASGOW MT     CLOUDY    52  48  86 N20G26    29.91R
GREAT FALLS MT SUNNY     44  37  76 NW7       30.25R
CHEYENNE WY    CLOUDY    45  33  63 CALM      30.17S
SCOTTSBLUFF NE CLOUDY    50  42  74 NW9       30.12R
OMAHA NE       CLOUDY    67  59  75 CALM      29.90S
DES MOINES IA  CLOUDY    67  59  75 S10       29.93F
DAVENPORT IA   PTSUNNY   71  64  78 SE8       29.97S
CHICAGO IL     PTSUNNY   73  54  51 NE9       30.00S
EAU CLAIRE WI  CLOUDY    66  57  72 S7        29.92R
LA CROSSE WI   CLOUDY    68  59  73 S6        29.93R
$$

  *****  SOME NATIONAL WEATHER *****

CITY           SKY/WX    TMP DP  RH WIND       PRES   REMARKS
LA GUARDIA NY  PTSUNNY   75  65  71 NE8       29.96R
RALEIGH NC     CLOUDY    74  70  87 NE6       29.99R
ATLANTA GA     MOSUNNY   76  63  64 E8        29.99R
NEW ORLEANS LA PTSUNNY   79  72  79 CALM      29.95S
OKLAHOMA CITY  LGT RAIN  67  62  84 N17G25    29.96R
ALBUQUERQUE NM MOSUNNY   66  38  35 SE8       30.04R
SALT LAKE CITY PTCLDY    57  41  55 SE5       30.07R
LOS ANGELES CA CLOUDY    60  56  86 CALM      29.88R FOG
BOISE ID       CLEAR     48  36  63 S3        30.11R
SEATTLE WA     PTCLDY    55  47  74 NE6       30.14F
$$

*** WEATHER ACROSS MANITOBA...SASKATCHEWAN AND ONTARIO ***
                ***ONTARIO***

CITY           SKY/WX    TMP DP  RH WIND       PRES   REMARKS
GERALDTON      MOSUNNY   45  36  70 E7        30.19R
THUNDER BAY    PTSUNNY   50  41  71 E14       30.14F
SIOUX LOOKOUT  CLOUDY    50  39  66 E7G18     30.06S
TORONTO        MOSUNNY   73  50  43 NW10G17   30.00S
BIG TROUT LK   CLOUDY    30  28  93 E6        30.30R WCI  24
PICKLE LAKE    PTSUNNY   45  34  65 E10       30.18R
DRYDEN         PTSUNNY   48  41  76 E10G21    30.00F
KENORA         LGT RAIN  48  46  93 E13G21    29.93F FOG
$$
                *** MANITOBA***

CITY           SKY/WX    TMP DP  RH WIND       PRES   REMARKS
BRANDON        LGT RAIN  52  52 100 NE23G33   29.73S
DAUPHIN        PTSUNNY   55  50  82 NE14G20   29.87F
ISLAND LAKE    NOT AVBL
PILOT MOUND    NOT AVBL
THE PAS        PTSUNNY   50  41  71 NE6       30.10R
THOMPSON       MOSUNNY   37  32  81 E7        30.24F
WINNIPEG       LGT RAIN  52  50  93 E24G31    29.77S FOG
LYNN LAKE      CLOUDY    43  39  87 E8        30.20S
GILLAM         LGT SNOW  30  27  86 E6        30.34R WCI  24
$$
                ***SASKATCHEWAN***

CITY           SKY/WX    TMP DP  RH WIND       PRES   REMARKS
ESTEVAN        LGT RAIN  54  52  94 N23G31    29.73S FOG
KINDERSLEY     CLOUDY    52  48  87 NW12G18   30.09S
LLOYDMINSTER   CLOUDY    50  48  93 N12       30.13S
PRINCE ALBERT  CLOUDY    52  48  87 E12       30.07R
REGINA         LGT RAIN  52  50  93 N13G22    29.92R
YORKTON        CLOUDY    50  48  93 N20G25    29.91R
N. BATTLEFORD  CLOUDY    54  48  82 NW6       30.10S
LA RONGE       CLOUDY    52  52 100 E3        30.12S
SASKATOON      PTSUNNY   52  50  93 NE13      30.06S
SWIFT CURRENT  CLOUDY    48  48 100 N14       30.03R
$$
NOTE: THESE ARE AUTOMATED STATIONS WITH LIMITED QUALITY CONTROL
      "FAIR" INDICATES FEW OR NO CLOUDS BELOW 12,000 FEET WITH NO
      SIGNIFICANT WEATHER AND/OR OBSTRUCTIONS TO VISIBILITY.
      SKY/WX - SKY CONDITION AND SIGNIFICANT WEATHER.
      TMP - AIR TEMPERATURE.    DP   - DEWPOINT TEMPERATURE.
      RH  - RELATIVE HUMIDITY.  PRES - PRESSURE.
      HX  - HEAT INDEX.         WCI  - WIND CHILL INDEX.
$




USA.gov is the U.S. government's official web portal to all federal, state and local government web resources and services.